Lexington Weather

Lexington, Massachusetts, USA

41°F
11/27/2020 3:32am 
  • Lexington Conditions: Fog, Overcast
  • Temperature: 41.2°F / 5.1°CWarmer 1.6°F than last hour.
  • Dew Point: 40.5°FIncreased 1.7°Fsince last hour.
  • Relative Humidity: 97
  • Wind: Calm, 10-min avg: Calm, gust: None
  • Barometer: 29.97 in Steady
  • Visibility: ½ mile
  • Rain Today: 0.00 in
  •   
Southeast Middlesex County - Special Weather Statement
 - SEE ALL NEARBY ALERTS -

Regional Weather Roundup
for Boston / Norton, MA

        
000
ASUS41 KBOX 261804
RWRBOX

REGIONAL WEATHER ROUNDUP
NATIONAL WEATHER SERVICE BOSTON/NORTON MA
100 PM EST THU NOV 26 2020

NOTE:  "FAIR" INDICATES FEW OR NO CLOUDS BELOW 12,000 FEET WITH NO 
SIGNIFICANT WEATHER AND/OR OBSTRUCTIONS TO VISIBILITY.

MAZALL-261900-
EASTERN MASSACHUSETTS
  
CITY           SKY/WX    TMP DP  RH WIND       PRES   REMARKS
BOSTON         RAIN      58  57  97 S10       29.97F                  
6HR MIN TEMP:  47; 6HR MAX TEMP:  58; 6HR PCP:  0.19;                

BEVERLY        CLOUDY    58  57  97 S9        29.96F                  
LAWRENCE       CLOUDY    48  47  96 CALM      29.98F FOG              
BEDFORD        CLOUDY    48  46  93 NW3       29.95F FOG              
BLUE HILL        N/A     58  57  97 S18G28    29.96F                  
NORWOOD        CLOUDY    62  58  86 S10       29.96F                  
MARSHFIELD     PTSUNNY   63  63 100 S13G23    29.98F                  
PLYMOUTH       LGT RAIN  60  58  92 S13G21    30.00F                  
TAUNTON        CLOUDY    62  58  86 SW10G21   29.99F                  
NEW BEDFORD    LGT RAIN  61  59  93 S21G29    29.99F                  
$$

MAZALL-261900-
CAPE COD AND THE ISLANDS
  
CITY           SKY/WX    TMP DP  RH WIND       PRES   REMARKS
FALMOUTH       CLOUDY    61  61 100 S14       30.03F                  
HYANNIS        CLOUDY    57  56  96 S10       30.02F                  
CHATHAM        CLOUDY    58  55  90 S10G20    30.05F                  
NANTUCKET      LGT RAIN  58  55  90 S17       30.06F                  
MARTHAS VNYRD  LGT RAIN  60  58  92 S17       30.03F FOG              
$$
 
MAZALL-261900-
CENTRAL AND WESTERN MASSACHUSETTS
  
CITY           SKY/WX    TMP DP  RH WIND       PRES   REMARKS
WORCESTER      CLOUDY    57  55  93 SW9       29.94F                  
6HR MIN TEMP:  45; 6HR MAX TEMP:  58; 6HR PCP:  0.53;                

FITCHBURG      CLOUDY    43  43 100 CALM      29.97F                  
ORANGE         CLOUDY    58  57  97 S6        29.93F                  
SPRINGFIELD    DRIZZLE   52  52 100 CALM      29.91F                  
WESTFIELD      LGT RAIN  46  46 100 CALM      29.92F FOG              
NORTH ADAMS    LGT RAIN  54  52  93 CALM      29.91F                  
PITTSFIELD     LGT RAIN  52  51  97 CALM      29.90S FOG              
$$
 
RIZALL-261900-
RHODE ISLAND
  
CITY           SKY/WX    TMP DP  RH WIND       PRES   REMARKS
PROVIDENCE     LGT RAIN  60  58  92 S20G31    29.98F FOG              
6HR MIN TEMP:  50; 6HR MAX TEMP:  61; 6HR PCP:  0.34;                

NEWPORT        RAIN      58  58 100 S15G32    29.99F VSB 3/4          
BLOCK ISLAND   CLOUDY    58  57  97 S20G25    29.98F FOG              
SMITHFIELD     LGT RAIN  59  59 100 VRB5      29.97F FOG              
WESTERLY       LGT RAIN  59  56  89 S12G21    29.98F FOG              
$$
 
CTZALL-261900-
CONNECTICUT
  
CITY           SKY/WX    TMP DP  RH WIND       PRES   REMARKS
BRADLEY INTL   LGT RAIN  60  57  89 S10       29.92F                  
6HR MIN TEMP:  42; 6HR MAX TEMP:  60; 6HR PCP:  0.55;                

HARTFORD       CLOUDY    61  57  87 S13       29.93F                  
BRIDGEPORT     PTSUNNY   61  58  90 SW12      29.94F                  
DANBURY        LGT RAIN  61  58  90 SW10      29.94F                  
GROTON         CLOUDY    59  57  93 S12       29.96F                  
NEW HAVEN      CLOUDY    62  59  90 S9        29.94F                  
CHESTER        CLOUDY    59  59 100 S12G18    29.95F FOG              
MERIDEN        CLOUDY    60  57  89 S10       29.94F                  
WILLIMANTIC    CLOUDY    59  57  93 S14       29.94F                  
OXFORD         LGT RAIN  59  59 100 SW6       29.95S FOG              
$$

MEZ002-015-021-024-NHZ003-005-008-011-012-014-VTZ005-008-261900-
NORTHERN NEW ENGLAND
  
CITY           SKY/WX    TMP DP  RH WIND       PRES   REMARKS
PORTLAND ME    CLOUDY    37  37 100 NW6       30.02F FOG              
6HR MIN TEMP:  34; 6HR MAX TEMP:  38; 6HR PCP:  0.22;                

BANGOR ME      LGT RAIN  35  34  96 CALM      30.07F FOG              
CONCORD NH     LGT RAIN  39  37  92 NW6       29.97F VSB 1            
MANCHESTER NH  FOG       41  39  93 CALM      29.96F VSB 1/2          
NASHUA NH      LGT RAIN  40  40 100 NW6       29.98F FOG              
PORTSMOUTH NH  LGT RAIN  41  41  99 N5        29.96  VSB 1            
JAFFREY NH     LGT RAIN  39  36  89 CALM      29.95F FOG              
KEENE NH       LGT RAIN  43  43 100 CALM      29.94F FOG              
BURLINGTON VT  CLOUDY    50  46  86 SE8       29.89F                  
MT. WASHINGTON LGT RAIN  36  36 100 SW29G39     N/A  VSB 1/16WCI  23  
$$

NYZ052-076-261900-
EASTERN NEW YORK
  
CITY           SKY/WX    TMP DP  RH WIND       PRES   REMARKS
ALBANY         CLOUDY    51  51 100 S8        29.90F                  
6HR MIN TEMP:  44; 6HR MAX TEMP:  51; 6HR PCP:  0.07;                

NEW YORK CITY  PTSUNNY   66  54  65 SW14      29.94F                  
6HR MIN TEMP:  58; 6HR MAX TEMP:  67; 6HR PCP:  0.21;                

$$
 
ANZALL-261900-
MARINE OBSERVATIONS
  
STATION/POSITION TIME  TEMP    WIND        PRES    VSBY  WAVE
                       AIR SEA DIR/SP/G                  HT/PER
                 (UTC) (F)     (DEG/KT/KT) (MB)    (MI)  (FT/S)
BOSTON BUOY      1740   53 50  160/ 12/ 14 1016.0F
BUZZARDS BAY     1700          200/ 18/ 19 1017.4F
NANTUCKET SOUND  1740      51  180/ 16/ 19   N/A
MASS BAY-STELLWA NOT AVBL
ISLE OF SHOALS   1700   52     190/ 16/ 17 1015.8F
S OF BLOCK IS    1726      57                N/A           6/ 6
$$

......................KEY.........................
  SKY/WX - SKY CONDITION/PRESENT WEATHER
  TMP    - TEMPERATURE IN FAHRENHEIT
  DWPT   - DEWPOINT IN FAHRENHEIT
  RH     - RELATIVE HUMIDITY IN PERCENT
  WIND   - DIRECTION AND SPEED IN MPH
  PRES   - MEAN SEA LEVEL PRESSURE IN INCHES OF HG
  WCI    - WIND CHILL INDEX
  VSB    - VISIBILITY IN MILES
  HX     - HEAT INDEX
  TC     - TEMPERATURE IN CELSIUS
  VRB    - VARIABLE WIND DIRECTION
  N/A    - NOT AVAILABLE
  
      

Other recent Regional Weather Roundups

Fri Nov 27, 12:04am

Thu Nov 26, 11:04pm

Thu Nov 26, 10:04pm

Thu Nov 26, 9:04pm

Thu Nov 26, 8:04pm

Thu Nov 26, 7:04pm

Thu Nov 26, 6:04pm

Thu Nov 26, 5:04pm

Thu Nov 26, 4:04pm

Thu Nov 26, 2:04pm

Thu Nov 26, 12:04pm

Thu Nov 26, 11:04am

Thu Nov 26, 10:04am

Thu Nov 26, 9:04am

Thu Nov 26, 8:04am

Thu Nov 26, 7:04am

Thu Nov 26, 6:04am

Thu Nov 26, 5:04am

Thu Nov 26, 4:04am

Thu Nov 26, 3:04am

Thu Nov 26, 2:04am

Thu Nov 26, 1:04am

Thu Nov 26, 12:04am

Wed Nov 25, 11:04pm

Wed Nov 25, 10:04pm

Wed Nov 25, 9:04pm

Wed Nov 25, 8:04pm

Wed Nov 25, 7:04pm

Wed Nov 25, 6:04pm

Wed Nov 25, 5:04pm

Wed Nov 25, 4:04pm

Wed Nov 25, 3:05pm

Wed Nov 25, 2:04pm

Wed Nov 25, 1:04pm

Wed Nov 25, 12:05pm

Wed Nov 25, 11:04am

Wed Nov 25, 10:04am

Wed Nov 25, 9:04am

Wed Nov 25, 8:04am

Wed Nov 25, 7:04am

Wed Nov 25, 6:04am

Wed Nov 25, 5:04am

Wed Nov 25, 4:04am

Wed Nov 25, 3:04am

Wed Nov 25, 2:04am

Wed Nov 25, 1:04am

Wed Nov 25, 12:04am

Tue Nov 24, 11:04pm

Tue Nov 24, 10:04pm

Tue Nov 24, 9:04pm

Tue Nov 24, 8:04pm

Tue Nov 24, 7:04pm

Tue Nov 24, 6:04pm

Tue Nov 24, 5:04pm

Tue Nov 24, 4:05pm

Tue Nov 24, 3:05pm

Tue Nov 24, 2:05pm

Tue Nov 24, 1:05pm

Tue Nov 24, 12:04pm

Tue Nov 24, 11:04am

Tue Nov 24, 10:04am

Tue Nov 24, 9:04am

Tue Nov 24, 8:04am

Tue Nov 24, 7:04am

Tue Nov 24, 6:04am

Tue Nov 24, 5:04am

Tue Nov 24, 4:05am

Tue Nov 24, 3:04am

Tue Nov 24, 2:04am

Tue Nov 24, 1:04am

Tue Nov 24, 12:05am

Mon Nov 23, 11:04pm

Mon Nov 23, 10:04pm

Mon Nov 23, 9:04pm

Mon Nov 23, 8:04pm

Mon Nov 23, 7:04pm

Mon Nov 23, 6:04pm

Mon Nov 23, 5:04pm

Mon Nov 23, 4:04pm

Mon Nov 23, 3:04pm

Mon Nov 23, 2:04pm

Mon Nov 23, 1:04pm

Mon Nov 23, 12:04pm

Mon Nov 23, 11:04am

Mon Nov 23, 10:04am

Mon Nov 23, 9:04am

Mon Nov 23, 8:05am

Mon Nov 23, 7:04am

Mon Nov 23, 6:04am

Mon Nov 23, 5:04am

Mon Nov 23, 4:04am

Mon Nov 23, 3:04am

Mon Nov 23, 2:04am

Mon Nov 23, 1:04am

Mon Nov 23, 12:05am

Sun Nov 22, 11:04pm

Sun Nov 22, 10:04pm

Sun Nov 22, 9:04pm

Sun Nov 22, 8:05pm

Sun Nov 22, 7:04pm

Sun Nov 22, 6:04pm

Sun Nov 22, 5:04pm

Sun Nov 22, 4:04pm

Sun Nov 22, 3:04pm

Sun Nov 22, 2:04pm

Sun Nov 22, 1:05pm

Sun Nov 22, 12:04pm

Sun Nov 22, 11:04am

Sun Nov 22, 10:05am

Sun Nov 22, 9:04am

Sun Nov 22, 8:04am

Sun Nov 22, 7:04am

Sun Nov 22, 6:04am

Sun Nov 22, 5:04am

Sun Nov 22, 4:04am

Sun Nov 22, 3:04am

Sun Nov 22, 2:04am

Sun Nov 22, 1:04am

Sun Nov 22, 12:04am

Sat Nov 21, 11:04pm

Sat Nov 21, 10:04pm

Sat Nov 21, 9:04pm

Sat Nov 21, 8:05pm

Sat Nov 21, 7:04pm

Sat Nov 21, 6:04pm

Sat Nov 21, 5:04pm

Sat Nov 21, 4:05pm

Sat Nov 21, 3:04pm

Sat Nov 21, 2:04pm

Sat Nov 21, 1:05pm

Sat Nov 21, 12:04pm

Sat Nov 21, 11:04am

Sat Nov 21, 10:04am

Sat Nov 21, 9:04am

Sat Nov 21, 8:04am

Sat Nov 21, 7:04am

Sat Nov 21, 6:04am

Sat Nov 21, 5:04am

Sat Nov 21, 4:04am

Sat Nov 21, 3:04am

Sat Nov 21, 2:04am

Sat Nov 21, 1:04am

Sat Nov 21, 12:04am

Fri Nov 20, 11:04pm

Fri Nov 20, 10:04pm

Fri Nov 20, 9:04pm

Fri Nov 20, 8:04pm

Fri Nov 20, 7:04pm

Fri Nov 20, 6:04pm

Fri Nov 20, 5:04pm

Fri Nov 20, 4:05pm

Fri Nov 20, 3:05pm

Fri Nov 20, 2:04pm

Fri Nov 20, 1:04pm

Fri Nov 20, 12:04pm

Fri Nov 20, 11:04am

Fri Nov 20, 10:04am

Fri Nov 20, 9:04am

Fri Nov 20, 8:04am

Fri Nov 20, 7:04am

Fri Nov 20, 6:04am

Fri Nov 20, 5:04am

Fri Nov 20, 4:04am

Meta data:

ID: 54c669ed-7b5b-400a-8488-60a63ed8e68e
Link: https://api.weather.gov/products/54c669ed-7b5b-400a-8488-60a63ed8e68e